Location: Malmö
(55.6090°N, 13.0007°E)
Time: 09:11:23
(UTC+01:00)

ISS - Pass Details

Date: 24 January 2021
Orbit: 417 x 422 km, 51.6° (Epoch: 05 March)

Event Time Altitude Azimuth Distance (km) Brightness Sun altitude
Rises 17:07:36 0° 205° (SSW) 2,364 1.0 -5.9°
Reaches altitude 10° 17:10:25 10° 180° (S) 1,505 -0.6 -6.3°
Maximum altitude 17:12:17 14° 146° (SE) 1,279 -1.4 -6.5°
Drops below altitude 10° 17:14:09 10° 112° (ESE) 1,511 -1.3 -6.7°
Enters shadow 17:15:26 - 98° (E) 1,858 -1.0 -6.9°
